TimeEDT,TemperatureF,Dew PointF,Humidity,Sea Level PressureIn,VisibilityMPH,Wind Direction,Wind SpeedMPH,Gust SpeedMPH,PrecipitationIn,Events,Conditions,WindDirDegrees,DateUTC
12:54 AM,55.9,52.0,87,29.49,10.0,ESE,5.8,-,0.00,,Mostly Cloudy,110,2012-10-31 04:54:00
1:54 AM,55.9,50.0,80,29.46,10.0,South,3.5,-,N/A,,Clear,170,2012-10-31 05:54:00
2:54 AM,53.1,48.9,86,29.47,10.0,Calm,Calm,-,N/A,,Mostly Cloudy,0,2012-10-31 06:54:00
3:54 AM,55.9,50.0,80,29.46,10.0,ESE,9.2,-,N/A,,Overcast,110,2012-10-31 07:54:00
4:54 AM,55.0,50.0,83,29.45,10.0,ESE,8.1,-,N/A,,Mostly Cloudy,120,2012-10-31 08:54:00
5:54 AM,54.0,48.9,83,29.44,10.0,East,10.4,-,N/A,,Mostly Cloudy,100,2012-10-31 09:54:00
6:54 AM,55.0,48.9,80,29.42,10.0,SE,5.8,-,N/A,,Mostly Cloudy,130,2012-10-31 10:54:00
7:54 AM,55.0,48.9,80,29.42,10.0,SSE,4.6,-,N/A,,Mostly Cloudy,150,2012-10-31 11:54:00
8:54 AM,55.9,51.1,84,29.41,10.0,East,9.2,-,0.00,,Mostly Cloudy,100,2012-10-31 12:54:00
9:31 AM,55.4,50.0,82,29.43,10.0,South,16.1,25.3,0.00,Rain,Light Rain,190,2012-10-31 13:31:00
9:45 AM,51.8,48.2,88,29.44,9.0,South,20.7,28.8,0.00,Rain,Light Rain,180,2012-10-31 13:45:00
9:54 AM,51.1,46.9,86,29.44,6.0,South,16.1,25.3,0.00,Rain,Light Rain,180,2012-10-31 13:54:00
10:09 AM,50.0,46.4,87,29.45,7.0,South,20.7,28.8,0.01,Rain,Light Rain,180,2012-10-31 14:09:00
10:20 AM,50.0,46.4,87,29.45,6.0,South,18.4,28.8,0.01,Rain,Light Rain,180,2012-10-31 14:20:00
10:54 AM,48.9,45.0,86,29.46,10.0,South,18.4,25.3,0.03,,Overcast,180,2012-10-31 14:54:00
11:54 AM,48.0,41.0,77,29.48,10.0,Variable,5.8,18.4,0.01,,Overcast,0,2012-10-31 15:54:00
12:54 PM,48.9,39.0,69,29.47,10.0,South,11.5,-,N/A,,Mostly Cloudy,180,2012-10-31 16:54:00
1:54 PM,51.1,39.0,63,29.46,10.0,South,12.7,18.4,N/A,,Overcast,190,2012-10-31 17:54:00
2:54 PM,50.0,39.9,68,29.46,10.0,South,8.1,18.4,N/A,,Overcast,180,2012-10-31 18:54:00
3:54 PM,50.0,39.9,68,29.46,10.0,South,8.1,-,N/A,,Overcast,180,2012-10-31 19:54:00
4:54 PM,50.0,39.9,68,29.46,10.0,South,9.2,-,N/A,,Overcast,180,2012-10-31 20:54:00
5:54 PM,48.9,39.9,71,29.47,10.0,South,9.2,-,N/A,,Mostly Cloudy,190,2012-10-31 21:54:00
6:54 PM,48.9,37.9,66,29.49,10.0,South,12.7,-,N/A,,Overcast,190,2012-10-31 22:54:00
7:54 PM,48.9,37.0,64,29.49,10.0,South,11.5,-,N/A,,Mostly Cloudy,190,2012-10-31 23:54:00
8:54 PM,48.0,37.0,66,29.50,10.0,South,10.4,-,N/A,,Scattered Clouds,180,2012-11-01 00:54:00
9:54 PM,46.9,36.0,66,29.51,10.0,South,9.2,-,N/A,,Mostly Cloudy,170,2012-11-01 01:54:00
10:54 PM,46.0,36.0,68,29.50,10.0,South,9.2,-,N/A,,Partly Cloudy,180,2012-11-01 02:54:00
11:54 PM,46.0,37.0,71,29.50,10.0,South,9.2,-,N/A,,Overcast,180,2012-11-01 03:54:00